| time (UTC) | temp C | wind direction | speed KPH | gust KPH | rain 1hr cm | rain 24hr cm | rain mn cm | humidity % | barometer mb |
| 20260510184525 | 27 | 219 | 1.6 | 9.7 | 0.00 | 0.00 | 0.00 | 32 | 1014.6 |
| 20260510184012 | 27 | 69 | 1.6 | 9.7 | 0.00 | 0.00 | 0.00 | 33 | 1014.7 |
| 20260510183512 | 27 | 199 | 3.2 | 6.4 | 0.00 | 0.00 | 0.00 | 39 | 1014.7 |
| 20260510183011 | 27 | 200 | 3.2 | 6.4 | 0.00 | 0.00 | 0.00 | 34 | 1014.7 |
| 20260510182511 | 27 | 340 | 1.6 | 8.0 | 0.00 | 0.00 | 0.00 | 32 | 1014.7 |
| 20260510182012 | 27 | 2 | 3.2 | 9.7 | 0.00 | 0.00 | 0.00 | 36 | 1014.8 |
| 20260510181512 | 27 | 354 | 3.2 | 9.7 | 0.00 | 0.00 | 0.00 | 35 | 1014.9 |
| 20260510181012 | 27 | 169 | 1.6 | 6.4 | 0.00 | 0.00 | 0.00 | 38 | 1014.9 |
| 20260510180512 | 27 | 302 | 3.2 | 8.0 | 0.00 | 0.00 | 0.00 | 40 | 1015.0 |
| 20260510180012 | 26 | 185 | 3.2 | 8.0 | 0.00 | 0.00 | 0.00 | 38 | 1015.1 |
| 20260510175512 | 26 | 151 | 3.2 | 6.4 | 0.00 | 0.00 | 0.00 | 34 | 1015.0 |
| 20260510175012 | 27 | 29 | 3.2 | 6.4 | 0.00 | 0.00 | 0.00 | 36 | 1015.1 |
| 20260510174512 | 26 | 357 | 3.2 | 6.4 | 0.00 | 0.00 | 0.00 | 37 | 1015.3 |
| 20260510174012 | 26 | 73 | 3.2 | 6.4 | 0.00 | 0.00 | 0.00 | 36 | 1015.2 |
| 20260510173512 | 26 | 111 | 1.6 | 6.4 | 0.00 | 0.00 | 0.00 | 41 | 1015.3 |
| 20260510173012 | 26 | 183 | 3.2 | 6.4 | 0.00 | 0.00 | 0.00 | 41 | 1015.2 |
| 20260510172512 | 26 | 210 | 1.6 | 4.8 | 0.00 | 0.00 | 0.00 | 37 | 1015.3 |
| 20260510172012 | 26 | 50 | 1.6 | 3.2 | 0.00 | 0.00 | 0.00 | 38 | 1015.3 |
| 20260510171512 | 26 | 26 | 1.6 | 4.8 | 0.00 | 0.00 | 0.00 | 39 | 1015.3 |
| 20260510171023 | 26 | 69 | 1.6 | 6.4 | 0.00 | 0.00 | 0.00 | 40 | 1015.3 |
| 20260510170523 | 26 | 53 | 1.6 | 6.4 | 0.00 | 0.00 | 0.00 | 39 | 1015.3 |
| 20260510170012 | 26 | 192 | 3.2 | 6.4 | 0.00 | 0.00 | 0.00 | 36 | 1015.5 |
| 20260510165512 | 26 | 310 | 1.6 | 6.4 | 0.00 | 0.00 | 0.00 | 36 | 1015.5 |
| 20260510165012 | 26 | 48 | 1.6 | 6.4 | 0.00 | 0.00 | 0.00 | 36 | 1015.6 |
| 20260510164523 | 26 | 215 | 1.6 | 6.4 | 0.00 | 0.00 | 0.00 | 38 | 1015.6 |
| 20260510164012 | 26 | 99 | 1.6 | 6.4 | 0.00 | 0.00 | 0.00 | 38 | 1015.6 |
| 20260510163512 | 26 | 36 | 1.6 | 4.8 | 0.00 | 0.00 | 0.00 | 38 | 1015.7 |
| 20260510163012 | 25 | 304 | 1.6 | 4.8 | 0.00 | 0.00 | 0.00 | 37 | 1015.6 |
| 20260510162512 | 25 | 219 | 0.0 | 4.8 | 0.00 | 0.00 | 0.00 | 39 | 1015.8 |
| 20260510162012 | 25 | 221 | 3.2 | 8.0 | 0.00 | 0.00 | 0.00 | 37 | 1015.8 |
| 20260510161512 | 25 | 2 | 4.8 | 8.0 | 0.00 | 0.00 | 0.00 | 35 | 1015.9 |
| 20260510161012 | 25 | 169 | 0.0 | 4.8 | 0.00 | 0.00 | 0.00 | 44 | 1015.8 |
| 20260510160512 | 25 | 169 | 1.6 | 6.4 | 0.00 | 0.00 | 0.00 | 42 | 1015.8 |
| 20260510160012 | 25 | 346 | 1.6 | 6.4 | 0.00 | 0.00 | 0.00 | 41 | 1015.8 |
| 20260510155512 | 26 | 273 | 1.6 | 3.2 | 0.00 | 0.00 | 0.00 | 49 | 1015.9 |
| 20260510155013 | 25 | 273 | 1.6 | 4.8 | 0.00 | 0.00 | 0.00 | 52 | 1015.9 |
| 20260510154512 | 25 | 273 | 3.2 | 4.8 | 0.00 | 0.00 | 0.00 | 42 | 1016.0 |
| 20260510154012 | 25 | 127 | 1.6 | 3.2 | 0.00 | 0.00 | 0.00 | 42 | 1015.9 |
| 20260510153523 | 25 | 312 | 1.6 | 3.2 | 0.00 | 0.00 | 0.00 | 49 | 1015.9 |
| 20260510153012 | 25 | 309 | 1.6 | 3.2 | 0.00 | 0.00 | 0.00 | 43 | 1015.9 |
| 20260510152512 | 25 | 269 | 0.0 | 3.2 | 0.00 | 0.00 | 0.00 | 52 | 1015.9 |
| 20260510152023 | 25 | 269 | 1.6 | 3.2 | 0.00 | 0.00 | 0.00 | 48 | 1016.0 |
| 20260510151512 | 25 | 252 | 1.6 | 3.2 | 0.00 | 0.00 | 0.00 | 46 | 1015.9 |
| 20260510151012 | 24 | 94 | 1.6 | 3.2 | 0.00 | 0.00 | 0.00 | 51 | 1016.0 |
| 20260510150512 | 24 | 70 | 1.6 | 4.8 | 0.00 | 0.00 | 0.00 | 49 | 1016.0 |
| 20260510150012 | 24 | 88 | 1.6 | 6.4 | 0.00 | 0.00 | 0.00 | 49 | 1016.1 |
| 20260510145512 | 24 | 149 | 1.6 | 6.4 | 0.00 | 0.00 | 0.00 | 53 | 1016.0 |
| 20260510145012 | 23 | 351 | 0.0 | 1.6 | 0.00 | 0.00 | 0.00 | 52 | 1016.0 |
| 20260510144523 | 23 | 351 | 0.0 | 6.4 | 0.00 | 0.00 | 0.00 | 54 | 1016.0 |
| 20260510144012 | 23 | 352 | 1.6 | 6.4 | 0.00 | 0.00 | 0.00 | 50 | 1016.0 |
| 20260510143512 | 23 | 339 | 1.6 | 6.4 | 0.00 | 0.00 | 0.00 | 53 | 1016.1 |
| 20260510143012 | 22 | 339 | 1.6 | 6.4 | 0.00 | 0.00 | 0.00 | 54 | 1016.1 |
| 20260510142512 | 22 | 314 | 1.6 | 3.2 | 0.00 | 0.00 | 0.00 | 57 | 1016.1 |
| 20260510142012 | 22 | 315 | 3.2 | 4.8 | 0.00 | 0.00 | 0.00 | 58 | 1016.1 |
| 20260510141512 | 22 | 110 | 1.6 | 4.8 | 0.00 | 0.00 | 0.00 | 57 | 1016.1 |
| 20260510141012 | 21 | 2 | 1.6 | 4.8 | 0.00 | 0.00 | 0.00 | 61 | 1016.0 |
| 20260510140512 | 21 | 112 | 1.6 | 3.2 | 0.00 | 0.00 | 0.00 | 65 | 1016.1 |
| 20260510140012 | 21 | 113 | 1.6 | 3.2 | 0.00 | 0.00 | 0.00 | 61 | 1016.1 |
| 20260510135512 | 20 | 113 | 1.6 | 4.8 | 0.00 | 0.00 | 0.00 | 69 | 1016.2 |
| 20260510135012 | 20 | 52 | 1.6 | 4.8 | 0.00 | 0.00 | 0.00 | 67 | 1016.1 |
| 20260510134512 | 19 | 18 | 1.6 | 4.8 | 0.00 | 0.00 | 0.00 | 72 | 1016.0 |
| 20260510134012 | 18 | 284 | 1.6 | 3.2 | 0.00 | 0.00 | 0.00 | 76 | 1016.0 |
| 20260510133524 | 18 | 284 | 1.6 | 3.2 | 0.00 | 0.00 | 0.00 | 86 | 1015.9 |
| 20260510133023 | 17 | 285 | 0.0 | 1.6 | 0.00 | 0.00 | 0.00 | 89 | 1015.9 |
| 20260510132512 | 17 | 285 | 0.0 | 3.2 | 0.00 | 0.00 | 0.00 | 93 | 1015.8 |
| 20260510132023 | 16 | 285 | 0.0 | 3.2 | 0.00 | 0.00 | 0.00 | 96 | 1015.9 |
| 20260510131512 | 16 | 285 | 1.6 | 3.2 | 0.00 | 0.00 | 0.00 | 96 | 1015.9 |
| 20260510131012 | 16 | 285 | 0.0 | 3.2 | 0.00 | 0.00 | 0.00 | 96 | 1016.0 |
| 20260510130512 | 15 | 283 | 0.0 | 1.6 | 0.00 | 0.00 | 0.00 | 96 | 1016.0 |
| 20260510130012 | 15 | 283 | 0.0 | 1.6 | 0.00 | 0.00 | 0.00 | 96 | 1016.0 |
| 20260510125523 | 15 | 283 | 0.0 | 0.0 | 0.00 | 0.00 | 0.00 | 96 | 1016.0 |
| 20260510125035 | 14 | 283 | 0.0 | 0.0 | 0.00 | 0.00 | 0.00 | 96 | 1016.0 |
| 20260510124524 | 14 | 283 | 0.0 | 0.0 | 0.00 | 0.00 | 0.00 | 96 | 1015.9 |
| 20260510124012 | 13 | 283 | 0.0 | 0.0 | 0.00 | 0.00 | 0.00 | 96 | 1015.9 |
| 20260510123512 | 13 | 283 | 0.0 | 1.6 | 0.00 | 0.00 | 0.00 | 96 | 1015.7 |
| 20260510123012 | 13 | 241 | 0.0 | 1.6 | 0.00 | 0.00 | 0.00 | 96 | 1015.6 |
| 20260510122512 | 12 | 141 | 0.0 | 0.0 | 0.00 | 0.00 | 0.00 | 96 | 1015.5 |
| 20260510122012 | 12 | 141 | 0.0 | 0.0 | 0.00 | 0.00 | 0.00 | 96 | 1015.4 |
| 20260510121512 | 12 | 141 | 0.0 | 0.0 | 0.00 | 0.00 | 0.00 | 96 | 1015.4 |
| 20260510121012 | 12 | 141 | 0.0 | 0.0 | 0.00 | 0.00 | 0.00 | 96 | 1015.3 |
| 20260510120512 | 12 | 141 | 0.0 | 0.0 | 0.00 | 0.00 | 0.00 | 96 | 1015.2 |
| 20260510120013 | 12 | 141 | 0.0 | 0.0 | 0.00 | 0.00 | 0.00 | 96 | 1015.0 |
| 20260510115512 | 11 | 141 | 0.0 | 0.0 | 0.00 | 0.00 | 0.00 | 96 | 1015.0 |
| 20260510115012 | 11 | 141 | 0.0 | 0.0 | 0.00 | 0.00 | 0.00 | 95 | 1015.0 |
| 20260510114512 | 11 | 141 | 0.0 | 0.0 | 0.00 | 0.00 | 0.00 | 96 | 1014.8 |
| 20260510114012 | 11 | 141 | 0.0 | 0.0 | 0.00 | 0.00 | 0.00 | 96 | 1014.7 |
| 20260510113512 | 11 | 141 | 0.0 | 0.0 | 0.00 | 0.00 | 0.00 | 96 | 1014.6 |
| 20260510113012 | 11 | 141 | 0.0 | 0.0 | 0.00 | 0.00 | 0.00 | 95 | 1014.6 |
| 20260510112512 | 11 | 141 | 0.0 | 0.0 | 0.00 | 0.00 | 0.00 | 95 | 1014.5 |
| 20260510112012 | 11 | 141 | 0.0 | 0.0 | 0.00 | 0.00 | 0.00 | 95 | 1014.4 |
| 20260510111512 | 11 | 141 | 0.0 | 0.0 | 0.00 | 0.00 | 0.00 | 95 | 1014.4 |
| 20260510111012 | 11 | 141 | 0.0 | 0.0 | 0.00 | 0.00 | 0.00 | 95 | 1014.4 |
| 20260510110512 | 11 | 141 | 0.0 | 0.0 | 0.00 | 0.00 | 0.00 | 95 | 1014.3 |
| 20260510110012 | 11 | 141 | 0.0 | 0.0 | 0.00 | 0.00 | 0.00 | 95 | 1014.2 |
| 20260510105512 | 11 | 141 | 0.0 | 0.0 | 0.00 | 0.00 | 0.00 | 95 | 1014.1 |
| 20260510105012 | 11 | 141 | 0.0 | 0.0 | 0.00 | 0.00 | 0.00 | 95 | 1014.0 |
| 20260510104512 | 11 | 141 | 0.0 | 0.0 | 0.00 | 0.00 | 0.00 | 95 | 1013.9 |
| 20260510104012 | 11 | 141 | 0.0 | 1.6 | 0.00 | 0.00 | 0.00 | 95 | 1013.9 |
| 20260510103523 | 11 | 141 | 0.0 | 1.6 | 0.00 | 0.00 | 0.00 | 94 | 1013.7 |
| 20260510103012 | 11 | 141 | 0.0 | 0.0 | 0.00 | 0.00 | 0.00 | 94 | 1013.6 |
| 20260510102512 | 11 | 141 | 0.0 | 0.0 | 0.00 | 0.00 | 0.00 | 95 | 1013.5 |
| 20260510102012 | 11 | 141 | 0.0 | 0.0 | 0.00 | 0.00 | 0.00 | 95 | 1013.5 |
| 20260510101512 | 11 | 141 | 0.0 | 0.0 | 0.00 | 0.00 | 0.00 | 94 | 1013.5 |
| 20260510101012 | 11 | 141 | 0.0 | 0.0 | 0.00 | 0.00 | 0.00 | 94 | 1013.4 |
| 20260510100512 | 11 | 141 | 0.0 | 0.0 | 0.00 | 0.00 | 0.00 | 94 | 1013.4 |
| 20260510100012 | 11 | 141 | 0.0 | 0.0 | 0.00 | 0.00 | 0.00 | 94 | 1013.4 |
| 20260510095512 | 11 | 141 | 0.0 | 0.0 | 0.00 | 0.00 | 0.00 | 94 | 1013.3 |
| 20260510095013 | 12 | 141 | 0.0 | 0.0 | 0.00 | 0.00 | 0.00 | 94 | 1013.3 |
| 20260510094512 | 12 | 141 | 0.0 | 0.0 | 0.00 | 0.00 | 0.00 | 94 | 1013.1 |
| 20260510094012 | 12 | 141 | 0.0 | 0.0 | 0.00 | 0.00 | 0.00 | 94 | 1013.1 |
| 20260510093527 | 12 | 141 | 0.0 | 0.0 | 0.00 | 0.00 | 0.00 | 94 | 1013.1 |
| 20260510093012 | 12 | 141 | 0.0 | 0.0 | 0.00 | 0.00 | 0.00 | 94 | 1013.1 |
| 20260510092512 | 12 | 141 | 0.0 | 0.0 | 0.00 | 0.00 | 0.00 | 95 | 1013.1 |
| 20260510092013 | 12 | 141 | 0.0 | 0.0 | 0.00 | 0.00 | 0.00 | 95 | 1013.1 |
| 20260510091513 | 12 | 141 | 0.0 | 0.0 | 0.00 | 0.00 | 0.00 | 95 | 1013.0 |
| 20260510091012 | 12 | 141 | 0.0 | 0.0 | 0.00 | 0.00 | 0.00 | 95 | 1013.0 |
| 20260510090513 | 12 | 141 | 0.0 | 0.0 | 0.00 | 0.00 | 0.00 | 94 | 1013.0 |
| 20260510090024 | 12 | 141 | 0.0 | 0.0 | 0.00 | 0.00 | 0.00 | 94 | 1013.0 |
| 20260510085512 | 12 | 141 | 0.0 | 0.0 | 0.00 | 0.00 | 0.00 | 94 | 1012.8 |
| 20260510085024 | 12 | 141 | 0.0 | 0.0 | 0.00 | 0.00 | 0.00 | 94 | 1012.8 |
| 20260510084524 | 12 | 141 | 0.0 | 0.0 | 0.00 | 0.00 | 0.00 | 94 | 1012.8 |
| 20260510084023 | 12 | 141 | 0.0 | 0.0 | 0.00 | 0.00 | 0.00 | 94 | 1012.8 |
| 20260510083513 | 12 | 141 | 0.0 | 0.0 | 0.00 | 0.00 | 0.00 | 94 | 1012.8 |
| 20260510083024 | 12 | 141 | 0.0 | 0.0 | 0.00 | 0.00 | 0.00 | 94 | 1012.7 |
| 20260510082513 | 12 | 141 | 0.0 | 0.0 | 0.00 | 0.00 | 0.00 | 94 | 1012.6 |
| 20260510082012 | 12 | 141 | 0.0 | 0.0 | 0.00 | 0.00 | 0.00 | 94 | 1012.5 |
| 20260510081512 | 13 | 141 | 0.0 | 0.0 | 0.00 | 0.00 | 0.00 | 94 | 1012.4 |
| 20260510081012 | 13 | 141 | 0.0 | 0.0 | 0.00 | 0.00 | 0.00 | 94 | 1012.3 |
| 20260510080513 | 13 | 141 | 0.0 | 0.0 | 0.00 | 0.00 | 0.00 | 94 | 1012.3 |
| 20260510080024 | 13 | 141 | 0.0 | 0.0 | 0.00 | 0.00 | 0.00 | 94 | 1012.3 |
| 20260510075513 | 13 | 141 | 0.0 | 0.0 | 0.00 | 0.00 | 0.00 | 94 | 1012.3 |
| 20260510075013 | 13 | 141 | 0.0 | 0.0 | 0.00 | 0.00 | 0.00 | 94 | 1012.2 |
| 20260510074512 | 13 | 141 | 0.0 | 0.0 | 0.00 | 0.00 | 0.00 | 94 | 1012.2 |
| 20260510074013 | 13 | 141 | 0.0 | 0.0 | 0.00 | 0.00 | 0.00 | 94 | 1012.2 |
| 20260510073512 | 13 | 141 | 0.0 | 0.0 | 0.00 | 0.00 | 0.00 | 94 | 1012.2 |
| 20260510073013 | 13 | 141 | 0.0 | 0.0 | 0.00 | 0.00 | 0.00 | 94 | 1012.2 |
| 20260510072512 | 13 | 141 | 0.0 | 0.0 | 0.00 | 0.00 | 0.00 | 94 | 1012.2 |
| 20260510072012 | 13 | 141 | 0.0 | 0.0 | 0.00 | 0.00 | 0.00 | 94 | 1012.2 |
| 20260510071513 | 13 | 141 | 0.0 | 0.0 | 0.00 | 0.00 | 0.00 | 94 | 1012.1 |
| 20260510071013 | 13 | 141 | 0.0 | 0.0 | 0.00 | 0.00 | 0.00 | 94 | 1012.0 |
| 20260510070513 | 13 | 141 | 0.0 | 0.0 | 0.00 | 0.00 | 0.00 | 94 | 1012.0 |
| 20260510070013 | 13 | 141 | 0.0 | 0.0 | 0.00 | 0.00 | 0.00 | 94 | 1012.0 |
| 20260510065513 | 13 | 141 | 0.0 | 0.0 | 0.00 | 0.00 | 0.00 | 94 | 1012.0 |
| 20260510065013 | 13 | 141 | 0.0 | 0.0 | 0.00 | 0.00 | 0.00 | 94 | 1012.1 |
| 20260510064513 | 14 | 141 | 0.0 | 1.6 | 0.00 | 0.00 | 0.00 | 94 | 1012.0 |
| 20260510064013 | 14 | 141 | 0.0 | 1.6 | 0.00 | 0.00 | 0.00 | 94 | 1012.0 |
| 20260510063513 | 14 | 141 | 0.0 | 1.6 | 0.00 | 0.00 | 0.00 | 94 | 1012.0 |
| 20260510063013 | 14 | 141 | 0.0 | 0.0 | 0.00 | 0.00 | 0.00 | 94 | 1012.0 |
| 20260510062513 | 14 | 141 | 0.0 | 0.0 | 0.00 | 0.00 | 0.00 | 94 | 1012.2 |
| 20260510062013 | 14 | 141 | 0.0 | 0.0 | 0.00 | 0.00 | 0.00 | 94 | 1012.1 |
| 20260510061512 | 14 | 141 | 0.0 | 0.0 | 0.00 | 0.00 | 0.00 | 94 | 1012.2 |
| 20260510061013 | 14 | 141 | 0.0 | 1.6 | 0.00 | 0.00 | 0.00 | 93 | 1012.2 |
| 20260510060513 | 14 | 141 | 0.0 | 1.6 | 0.00 | 0.00 | 0.00 | 94 | 1012.2 |
| 20260510060013 | 14 | 141 | 1.6 | 1.6 | 0.00 | 0.00 | 0.00 | 94 | 1012.1 |
| 20260510055513 | 14 | 141 | 0.0 | 1.6 | 0.00 | 0.00 | 0.00 | 94 | 1012.0 |
| 20260510055035 | 14 | 141 | 0.0 | 1.6 | 0.00 | 0.00 | 0.00 | 93 | 1012.0 |
| 20260510054524 | 14 | 141 | 0.0 | 0.0 | 0.00 | 0.00 | 0.00 | 93 | 1012.1 |
| 20260510054024 | 15 | 141 | 0.0 | 0.0 | 0.00 | 0.00 | 0.00 | 93 | 1012.2 |
| 20260510053513 | 15 | 141 | 0.0 | 0.0 | 0.00 | 0.00 | 0.00 | 93 | 1012.3 |
| 20260510053013 | 15 | 141 | 0.0 | 0.0 | 0.00 | 0.00 | 0.00 | 93 | 1012.3 |
| 20260510052513 | 15 | 141 | 0.0 | 0.0 | 0.00 | 0.00 | 0.00 | 93 | 1012.3 |
| 20260510052013 | 15 | 141 | 0.0 | 0.0 | 0.00 | 0.00 | 0.00 | 93 | 1012.3 |
| 20260510051513 | 15 | 141 | 0.0 | 0.0 | 0.00 | 0.00 | 0.00 | 93 | 1012.4 |
| 20260510051013 | 15 | 141 | 0.0 | 0.0 | 0.00 | 0.00 | 0.00 | 93 | 1012.5 |
| 20260510050513 | 15 | 141 | 0.0 | 0.0 | 0.00 | 0.00 | 0.00 | 93 | 1012.4 |
| 20260510050013 | 15 | 141 | 0.0 | 0.0 | 0.00 | 0.00 | 0.00 | 92 | 1012.4 |
| 20260510045524 | 15 | 141 | 0.0 | 0.0 | 0.00 | 0.00 | 0.00 | 92 | 1012.3 |
| 20260510045013 | 15 | 141 | 0.0 | 0.0 | 0.00 | 0.00 | 0.00 | 92 | 1012.3 |
| 20260510044513 | 15 | 141 | 0.0 | 0.0 | 0.00 | 0.00 | 0.00 | 92 | 1012.4 |
| 20260510044013 | 15 | 141 | 0.0 | 0.0 | 0.00 | 0.00 | 0.00 | 92 | 1012.4 |
| 20260510043524 | 15 | 141 | 0.0 | 0.0 | 0.00 | 0.00 | 0.00 | 92 | 1012.4 |
| 20260510043013 | 15 | 141 | 0.0 | 0.0 | 0.00 | 0.00 | 0.00 | 92 | 1012.3 |
| 20260510042524 | 15 | 141 | 0.0 | 0.0 | 0.00 | 0.00 | 0.00 | 92 | 1012.2 |
| 20260510042013 | 15 | 141 | 0.0 | 0.0 | 0.00 | 0.00 | 0.00 | 91 | 1012.2 |
| 20260510041513 | 15 | 141 | 0.0 | 0.0 | 0.00 | 0.00 | 0.00 | 91 | 1012.2 |
| 20260510041013 | 15 | 141 | 0.0 | 0.0 | 0.00 | 0.00 | 0.00 | 91 | 1012.2 |
| 20260510040513 | 15 | 141 | 0.0 | 0.0 | 0.00 | 0.00 | 0.00 | 91 | 1012.3 |
| 20260510040024 | 16 | 141 | 0.0 | 0.0 | 0.00 | 0.00 | 0.00 | 91 | 1012.2 |
| 20260510035513 | 16 | 141 | 0.0 | 0.0 | 0.00 | 0.00 | 0.00 | 90 | 1012.2 |
| 20260510035013 | 16 | 141 | 0.0 | 0.0 | 0.00 | 0.00 | 0.00 | 90 | 1012.4 |
| 20260510034513 | 16 | 141 | 0.0 | 0.0 | 0.00 | 0.00 | 0.00 | 90 | 1012.4 |
| 20260510034013 | 16 | 141 | 0.0 | 0.0 | 0.00 | 0.00 | 0.00 | 90 | 1012.4 |
| 20260510033513 | 16 | 141 | 0.0 | 0.0 | 0.00 | 0.00 | 0.00 | 90 | 1012.4 |
| 20260510033013 | 16 | 141 | 0.0 | 0.0 | 0.00 | 0.00 | 0.00 | 90 | 1012.3 |
| 20260510032524 | 16 | 141 | 0.0 | 0.0 | 0.00 | 0.00 | 0.00 | 90 | 1012.3 |
| 20260510032013 | 16 | 141 | 0.0 | 1.6 | 0.00 | 0.00 | 0.00 | 90 | 1012.3 |
| 20260510031535 | 16 | 141 | 0.0 | 1.6 | 0.00 | 0.00 | 0.00 | 90 | 1012.3 |
| 20260510031013 | 16 | 141 | 0.0 | 1.6 | 0.00 | 0.00 | 0.00 | 90 | 1012.3 |
| 20260510030513 | 16 | 141 | 0.0 | 3.2 | 0.00 | 0.00 | 0.00 | 90 | 1012.3 |
| 20260510030013 | 16 | 141 | 0.0 | 3.2 | 0.00 | 0.00 | 0.00 | 90 | 1012.2 |
| 20260510025513 | 16 | 141 | 0.0 | 1.6 | 0.00 | 0.00 | 0.00 | 90 | 1012.3 |
| 20260510025013 | 16 | 141 | 0.0 | 1.6 | 0.00 | 0.00 | 0.00 | 89 | 1012.2 |
| 20260510024513 | 16 | 141 | 0.0 | 1.6 | 0.00 | 0.00 | 0.00 | 89 | 1012.2 |
| 20260510024013 | 16 | 141 | 0.0 | 0.0 | 0.00 | 0.00 | 0.00 | 89 | 1012.2 |
| 20260510023524 | 16 | 141 | 0.0 | 0.0 | 0.00 | 0.00 | 0.00 | 89 | 1012.1 |
| 20260510023013 | 16 | 141 | 0.0 | 0.0 | 0.00 | 0.00 | 0.00 | 88 | 1012.1 |
| 20260510022513 | 16 | 141 | 0.0 | 1.6 | 0.00 | 0.00 | 0.00 | 88 | 1011.9 |
| 20260510022013 | 16 | 141 | 0.0 | 1.6 | 0.00 | 0.00 | 0.00 | 88 | 1011.9 |
| 20260510021513 | 16 | 141 | 0.0 | 1.6 | 0.00 | 0.00 | 0.00 | 88 | 1011.8 |
| 20260510021013 | 16 | 141 | 0.0 | 0.0 | 0.00 | 0.00 | 0.00 | 87 | 1011.8 |
| 20260510020513 | 16 | 141 | 0.0 | 0.0 | 0.00 | 0.00 | 0.00 | 87 | 1011.8 |
| 20260510020013 | 16 | 141 | 0.0 | 0.0 | 0.00 | 0.00 | 0.00 | 87 | 1011.9 |
| 20260510015513 | 17 | 141 | 0.0 | 0.0 | 0.00 | 0.00 | 0.00 | 86 | 1011.9 |
| 20260510015013 | 17 | 141 | 0.0 | 1.6 | 0.00 | 0.00 | 0.00 | 86 | 1011.8 |
| 20260510014525 | 17 | 141 | 0.0 | 1.6 | 0.00 | 0.00 | 0.00 | 86 | 1011.7 |
| 20260510014013 | 17 | 141 | 0.0 | 1.6 | 0.00 | 0.00 | 0.00 | 85 | 1011.7 |
| 20260510013513 | 17 | 141 | 0.0 | 1.6 | 0.00 | 0.00 | 0.00 | 85 | 1011.6 |
| 20260510013013 | 17 | 141 | 0.0 | 0.0 | 0.00 | 0.00 | 0.00 | 84 | 1011.5 |
| 20260510012525 | 17 | 141 | 0.0 | 0.0 | 0.00 | 0.00 | 0.00 | 84 | 1011.3 |
| 20260510012013 | 17 | 141 | 0.0 | 0.0 | 0.00 | 0.00 | 0.00 | 84 | 1011.2 |
| 20260510011514 | 18 | 141 | 0.0 | 0.0 | 0.00 | 0.00 | 0.00 | 83 | 1011.1 |
| 20260510011013 | 18 | 141 | 0.0 | 0.0 | 0.00 | 0.00 | 0.00 | 82 | 1011.0 |
| 20260510010513 | 18 | 141 | 0.0 | 1.6 | 0.00 | 0.00 | 0.00 | 82 | 1010.9 |
| 20260510010024 | 18 | 141 | 0.0 | 1.6 | 0.00 | 0.00 | 0.00 | 81 | 1010.8 |
| 20260510005513 | 18 | 141 | 0.0 | 0.0 | 0.00 | 0.00 | 0.00 | 81 | 1010.6 |
| 20260510005013 | 18 | 141 | 0.0 | 1.6 | 0.00 | 0.00 | 0.00 | 80 | 1010.7 |
| 20260510004513 | 19 | 141 | 0.0 | 1.6 | 0.00 | 0.00 | 0.00 | 80 | 1010.6 |
| 20260510004014 | 19 | 141 | 0.0 | 1.6 | 0.00 | 0.00 | 0.00 | 78 | 1010.5 |
| 20260510003525 | 19 | 141 | 0.0 | 1.6 | 0.00 | 0.00 | 0.00 | 79 | 1010.5 |
| 20260510003013 | 20 | 141 | 0.0 | 1.6 | 0.00 | 0.00 | 0.00 | 77 | 1010.4 |
| 20260510002513 | 20 | 141 | 0.0 | 1.6 | 0.00 | 0.00 | 0.00 | 76 | 1010.4 |
| 20260510002025 | 20 | 141 | 0.0 | 3.2 | 0.00 | 0.00 | 0.00 | 75 | 1010.3 |
| 20260510001513 | 20 | 141 | 0.0 | 3.2 | 0.00 | 0.00 | 0.00 | 75 | 1010.3 |
| 20260510001013 | 20 | 114 | 0.0 | 1.6 | 0.00 | 0.00 | 0.00 | 74 | 1010.2 |
| 20260510000513 | 20 | 201 | 0.0 | 1.6 | 0.00 | 0.00 | 0.00 | 74 | 1010.2 |
| 20260510000013 | 20 | 201 | 1.6 | 8.0 | 0.00 | 0.00 | 0.00 | 73 | 1010.2 |
| 20260509235514 | 20 | 201 | 1.6 | 11.3 | 0.00 | 0.00 | 0.00 | 73 | 1010.2 |
| 20260509235013 | 20 | 192 | 3.2 | 11.3 | 0.00 | 0.00 | 0.00 | 73 | 1010.1 |
| 20260509234513 | 20 | 154 | 0.0 | 3.2 | 0.00 | 0.00 | 0.00 | 73 | 1010.1 |
| 20260509234013 | 20 | 154 | 1.6 | 3.2 | 0.00 | 0.00 | 0.00 | 73 | 1010.1 |
| 20260509233513 | 21 | 135 | 1.6 | 3.2 | 0.00 | 0.00 | 0.00 | 72 | 1010.0 |
| 20260509233013 | 21 | 304 | 0.0 | 9.7 | 0.00 | 0.00 | 0.00 | 71 | 1009.7 |
| 20260509232536 | 21 | 181 | 1.6 | 9.7 | 0.00 | 0.00 | 0.00 | 71 | 1009.7 |
| 20260509232013 | 21 | 207 | 1.6 | 4.8 | 0.00 | 0.00 | 0.00 | 71 | 1009.9 |
| 20260509231513 | 21 | 207 | 0.0 | 12.9 | 0.00 | 0.00 | 0.00 | 70 | 1009.7 |
| 20260509231013 | 21 | 207 | 1.6 | 12.9 | 0.00 | 0.00 | 0.00 | 70 | 1009.7 |
| 20260509230525 | 21 | 213 | 1.6 | 8.0 | 0.00 | 0.00 | 0.00 | 70 | 1009.6 |
| 20260509230014 | 21 | 208 | 1.6 | 8.0 | 0.00 | 0.00 | 0.00 | 70 | 1009.6 |
| 20260509225514 | 21 | 217 | 1.6 | 3.2 | 0.00 | 0.00 | 0.00 | 70 | 1009.5 |
| 20260509225024 | 21 | 217 | 1.6 | 6.4 | 0.00 | 0.00 | 0.00 | 70 | 1009.4 |
| 20260509224513 | 21 | 212 | 1.6 | 6.4 | 0.00 | 0.00 | 0.00 | 69 | 1009.3 |
| 20260509224014 | 21 | 193 | 1.6 | 3.2 | 0.00 | 0.00 | 0.00 | 70 | 1009.3 |
| 20260509223514 | 21 | 56 | 1.6 | 3.2 | 0.00 | 0.00 | 0.00 | 69 | 1009.3 |
| 20260509223013 | 21 | 196 | 1.6 | 4.8 | 0.00 | 0.00 | 0.00 | 69 | 1009.5 |
| 20260509222514 | 21 | 196 | 1.6 | 11.3 | 0.00 | 0.00 | 0.00 | 68 | 1009.5 |
| 20260509222013 | 21 | 169 | 1.6 | 11.3 | 0.00 | 0.00 | 0.00 | 68 | 1009.5 |
| 20260509221514 | 21 | 96 | 1.6 | 8.0 | 0.00 | 0.00 | 0.00 | 68 | 1009.4 |
| 20260509221013 | 22 | 54 | 0.0 | 9.7 | 0.00 | 0.00 | 0.00 | 68 | 1009.4 |
| 20260509220513 | 22 | 54 | 3.2 | 9.7 | 0.00 | 0.00 | 0.00 | 67 | 1009.5 |
| 20260509220014 | 22 | 224 | 1.6 | 8.0 | 0.00 | 0.00 | 0.00 | 66 | 1009.4 |
| 20260509215513 | 22 | 215 | 3.2 | 8.0 | 0.00 | 0.00 | 0.00 | 65 | 1009.4 |
| 20260509215013 | 22 | 151 | 3.2 | 6.4 | 0.00 | 0.00 | 0.00 | 68 | 1009.4 |
| 20260509214525 | 22 | 40 | 1.6 | 6.4 | 0.00 | 0.00 | 0.00 | 70 | 1009.4 |
| 20260509214013 | 22 | 208 | 1.6 | 6.4 | 0.00 | 0.00 | 0.00 | 67 | 1009.4 |
| 20260509213525 | 22 | 202 | 3.2 | 9.7 | 0.00 | 0.00 | 0.00 | 66 | 1009.4 |
| 20260509213025 | 22 | 231 | 4.8 | 9.7 | 0.00 | 0.00 | 0.00 | 67 | 1009.4 |
| 20260509212514 | 22 | 177 | 3.2 | 11.3 | 0.00 | 0.00 | 0.00 | 67 | 1009.4 |
| 20260509212013 | 22 | 229 | 3.2 | 11.3 | 0.00 | 0.00 | 0.00 | 67 | 1009.4 |
| 20260509211513 | 22 | 225 | 3.2 | 9.7 | 0.00 | 0.00 | 0.00 | 66 | 1009.3 |
| 20260509211013 | 21 | 227 | 3.2 | 9.7 | 0.00 | 0.00 | 0.00 | 68 | 1009.2 |
| 20260509210514 | 21 | 82 | 3.2 | 11.3 | 0.00 | 0.00 | 0.00 | 68 | 1009.2 |
| 20260509210026 | 21 | 256 | 1.6 | 8.0 | 0.00 | 0.00 | 0.00 | 69 | 1009.1 |
| 20260509205513 | 21 | 214 | 3.2 | 9.7 | 0.00 | 0.00 | 0.00 | 68 | 1009.0 |
| 20260509205013 | 21 | 199 | 3.2 | 9.7 | 0.00 | 0.00 | 0.00 | 68 | 1008.9 |
| 20260509204514 | 21 | 90 | 1.6 | 6.4 | 0.00 | 0.00 | 0.00 | 69 | 1009.1 |
| 20260509204014 | 21 | 99 | 1.6 | 6.4 | 0.00 | 0.00 | 0.00 | 68 | 1009.3 |
| 20260509203514 | 21 | 58 | 3.2 | 8.0 | 0.00 | 0.00 | 0.00 | 68 | 1009.3 |
| 20260509203013 | 22 | 214 | 3.2 | 11.3 | 0.00 | 0.00 | 0.00 | 68 | 1009.3 |
| 20260509202547 | 22 | 219 | 3.2 | 16.1 | 0.00 | 0.00 | 0.00 | 68 | 1009.3 |
| 20260509202014 | 21 | 204 | 4.8 | 16.1 | 0.00 | 0.00 | 0.00 | 68 | 1009.5 |
| 20260509201514 | 21 | 207 | 3.2 | 6.4 | 0.00 | 0.00 | 0.00 | 68 | 1009.4 |
| 20260509201025 | 22 | 55 | 3.2 | 16.1 | 0.00 | 0.00 | 0.00 | 68 | 1009.4 |
| 20260509200513 | 22 | 201 | 4.8 | 16.1 | 0.00 | 0.00 | 0.00 | 67 | 1009.5 |
| 20260509200013 | 22 | 231 | 3.2 | 8.0 | 0.00 | 0.00 | 0.00 | 68 | 1009.4 |
| 20260509195513 | 22 | 71 | 3.2 | 11.3 | 0.00 | 0.00 | 0.00 | 68 | 1009.4 |
| 20260509195014 | 22 | 63 | 4.8 | 11.3 | 0.00 | 0.00 | 0.00 | 70 | 1009.4 |
| 20260509194513 | 22 | 211 | 3.2 | 9.7 | 0.00 | 0.00 | 0.00 | 69 | 1009.5 |
| 20260509194014 | 21 | 225 | 4.8 | 14.5 | 0.00 | 0.00 | 0.00 | 69 | 1009.6 |
| 20260509193514 | 21 | 193 | 3.2 | 14.5 | 0.00 | 0.00 | 0.00 | 69 | 1009.7 |
| 20260509193014 | 21 | 218 | 1.6 | 11.3 | 0.00 | 0.00 | 0.00 | 71 | 1009.8 |
| 20260509192514 | 21 | 213 | 3.2 | 8.0 | 0.00 | 0.00 | 0.00 | 70 | 1010.0 |
| 20260509192014 | 21 | 148 | 3.2 | 6.4 | 0.00 | 0.00 | 0.00 | 69 | 1009.9 |
| 20260509191514 | 21 | 217 | 1.6 | 8.0 | 0.00 | 0.00 | 0.00 | 70 | 1009.9 |
| 20260509191014 | 21 | 218 | 3.2 | 11.3 | 0.00 | 0.00 | 0.00 | 70 | 1010.0 |
| 20260509190514 | 21 | 229 | 3.2 | 11.3 | 0.00 | 0.00 | 0.00 | 69 | 1009.9 |
| 20260509190025 | 21 | 218 | 1.6 | 8.0 | 0.00 | 0.00 | 0.00 | 70 | 1009.8 |
| 20260509185514 | 21 | 142 | 1.6 | 8.0 | 0.00 | 0.00 | 0.00 | 68 | 1009.8 |
| 20260509185013 | 21 | 181 | 3.2 | 4.8 | 0.00 | 0.00 | 0.00 | 69 | 1009.8 |